カタログに戻る

FENGYUN 1C DEB

運用中SSO
NORAD 36224·DEBRIS·🇨🇳 China

打ち上げ May 10, 1999 から Taiyuan Satellite Launch Center

Loading…

次のパス (今後24時間)

TLE

経年Source: Space-Track

元期: Sep 9, 2026, 08:38 UTC

1 36224U 99025DUZ 26252.36007830  .00000091  00000-0  68553-4 0  9997
2 36224  98.7438 298.8883 0113670 302.2661  56.7537 14.12877828682537

AllMySatでFENGYUN 1C DEBをリアルタイム追跡

Download on the App Store